This demonstration page uses our WeatherBlox Daily Observations layout. Learn more.

Left ArrowRight Arrow

39.29038, -76.61219

Hourly Observations for November 1, 2018

Temp ( °F °C ) Dew Point ( °F °C ) Humidity (%) Winds ( mph kmh ) Pressure ( in mb ) Visibility ( mi km ) Precip ( " mm )
12:54 am 00:54 undefined 58 14.4 51 10.6 78 78 undefined N/A 29.92 1013 N/A 0.00 0.00
1:54 am 01:54 undefined 57 13.9 51 10.6 81 81 undefined N/A 29.91 1013 N/A 0.00 0.00
2:54 am 02:54 undefined 56 13.3 51 10.6 84 84 undefined N/A 29.91 1013 N/A 0.00 0.00
3:54 am 03:54 undefined 56 13.3 52 11.1 87 87 undefined N/A 29.90 1013 N/A 0.00 0.00
4:54 am 04:54 undefined 56 13.3 52 11.1 87 87 undefined N/A 29.90 1013 N/A 0.00 0.00
5:54 am 05:54 undefined 55 12.8 51 10.6 87 87 undefined N/A 29.90 1013 N/A 0.00 0.00
6:54 am 06:54 undefined 55 12.8 52 11.1 90 90 undefined N/A 29.90 1013 N/A 0.00 0.00
7:54 am 07:54 undefined 56 13.3 52 11.1 87 87 undefined N/A 29.91 1013 N/A 0.00 0.00
8:54 am 08:54 undefined 59 15 54 12.2 83 83 undefined N/A 29.94 1014 N/A 0.00 0.00
9:54 am 09:54 undefined 62 16.7 55 12.8 78 78 undefined N/A 29.94 1014 N/A 0.00 0.00
10:54 am 10:54 undefined 66 18.9 55 12.8 68 68 undefined N/A 29.92 1013 N/A 0.00 0.00
11:54 am 11:54 undefined 71 21.7 56 13.3 59 59 undefined N/A 29.89 1012 N/A 0.00 0.00
12:54 pm 12:54 undefined 74 23.3 56 13.3 54 54 undefined N/A 29.86 1011 N/A 0.00 0.00
1:54 pm 13:54 undefined 73 22.8 55 12.8 53 53 undefined N/A 29.82 1010 N/A 0.00 0.00
2:54 pm 14:54 undefined 76 24.4 54 12.2 47 47 undefined N/A 29.83 1010 N/A 0.00 0.00
3:54 pm 15:54 undefined 75 23.9 53 11.7 46 46 undefined N/A 29.80 1009 N/A 0.00 0.00
4:54 pm 16:54 undefined 72 22.2 54 12.2 53 53 undefined N/A 29.80 1009 N/A 0.00 0.00
5:54 pm 17:54 undefined 71 21.7 54 12.2 55 55 undefined N/A 29.79 1009 N/A 0.00 0.00
6:54 pm 18:54 undefined 70 21.1 55 12.8 59 59 undefined N/A 29.80 1009 N/A 0.00 0.00
7:54 pm 19:54 undefined 69 20.6 56 13.3 63 63 undefined N/A 29.80 1009 N/A 0.00 0.00
8:54 pm 20:54 undefined 69 20.6 58 14.4 68 68 undefined N/A 29.79 1009 N/A 0.00 0.00
9:54 pm 21:54 undefined 67 19.4 58 14.4 73 73 undefined N/A 29.77 1008 N/A 0.00 0.00
10:54 pm 22:54 undefined 69 20.6 59 15 70 70 undefined N/A 29.72 1007 N/A 0.00 0.00
11:54 pm 23:54 undefined 71 21.7 60 15.6 68 68 undefined N/A 29.73 1007 N/A 0.00 0.00

Powered by AerisWeather